[[{"header":{"parameterUnit":"m.s-1","parameterCategory":1,"la1":30.2992,"la2":30.254,"lo1":-89.0895,"lo2":-89.0443,"dy":0.0025,"dx":0.0025,"nx":19,"ny":19,"refTime":"2026-04-28T03:00:00:Z","depth":0,"parameterNumber":2,"parameterNumberName":"U-component_of_WINDS"},"data":[0,0,0,-2.5705,-2.5705,-2.5717,-2.5717,-2.5741,-2.5742,0,0,0,0,0,0,0,0,0,0,0,-2.5707,-2.5707,-2.5705,-2.5705,-2.5717,-2.5717,-2.5741,-2.5742,0,0,0,0,0,0,0,0,0,0,0,-2.5707,-2.5707,-2.5707,-2.5706,-2.5717,-2.5717,-2.5741,-2.5729,0,0,0,0,0,0,0,0,0,0,-2.5716,-2.5723,-2.5707,-2.5707,-2.5706,-2.5717,-2.5717,-2.5729,-2.573,-2.574,0,-2.5749,0,-2.5746,-2.5744,-2.5744,0,0,0,-2.5702,-2.5721,-2.572,-2.5707,-2.5706,-2.5717,-2.5711,-2.5729,-2.5731,-2.5742,-2.575,-2.575,-2.5746,-2.5744,-2.5744,-2.581,-2.5811,0,0,-2.5701,-2.5712,-2.5719,-2.5721,-2.5719,-2.5711,-2.5711,-2.573,-2.574,-2.575,-2.5751,-2.5747,-2.5744,-2.5744,-2.581,-2.581,0,0,0,-2.5702,-2.5711,-2.5709,-2.5721,-2.5722,-2.5711,-2.5712,-2.5739,-2.5737,-2.5751,-2.5747,-2.5744,-2.5745,-2.5809,-2.581,-2.5842,0,0,0,-2.5701,-2.5712,-2.5709,-2.5716,-2.5722,-2.573,-2.572,-2.5736,-2.5738,-2.5747,-2.5744,-2.5745,-2.5809,-2.581,-2.584,-2.5855,0,0,0,-2.5704,-2.5712,-2.5715,-2.5716,-2.5721,-2.573,-2.5729,-2.5736,-2.5735,-2.5744,-2.5745,-2.5808,-2.5809,-2.5838,-2.5852,-2.5874,0,0,0,-2.5711,-2.5745,-2.5716,-2.5753,-2.5721,-2.575,-2.5729,-2.575,-2.5761,-2.5745,-2.5809,-2.581,-2.5837,-2.585,-2.5872,-2.5894,-2.5904,0,0,-2.5759,-2.5751,-2.5772,-2.5746,-2.5782,-2.5747,-2.5788,-2.5789,-2.5781,-2.5801,-2.5803,-2.584,-2.5852,-2.5874,-2.596,-2.5968,0,0,0,-2.5791,-2.5806,-2.5813,-2.5823,-2.5825,-2.5827,-2.582,-2.5821,-2.5837,-2.5793,-2.5855,-2.5861,-2.5874,-2.5884,-2.5891,-2.59,-2.5815,-2.5815,-2.5815,-2.5875,-2.5862,-2.5895,-2.5883,-2.5894,-2.5886,-2.5894,-2.5893,-2.5878,-2.5893,-2.5898,-2.5952,-2.5964,-2.5969,-2.5979,-2.591,-2.591,-2.591,-2.591,-2.5944,-2.5963,-2.5941,-2.5964,-2.5951,-2.5971,-2.5966,-2.5954,-2.5971,-2.5947,-2.5957,-2.593,-2.5978,-2.5986,-2.5912,-2.5912,-2.5911,-2.5911,-2.5911,-2.5997,-2.6003,-2.6002,-2.6015,-2.6027,-2.6015,-2.6031,-2.6019,-2.6008,-2.6018,-2.6021,-2.6021,-2.6018,-2.6021,-2.6021,-2.6021,-2.6021,-2.6021,-2.6021,-2.6051,-2.6049,-2.6064,-2.6067,-2.6072,-2.6076,-2.6069,-2.6074,-2.6075,-2.6065,-2.6065,-2.6047,-2.5985,-2.5969,-2.6024,-2.6024,-2.6023,-2.6023,-2.6023,-2.6124,-2.6105,-2.6129,-2.6133,-2.6136,-2.6148,-2.6131,-2.6141,-2.6143,-2.6152,-2.6132,-2.6089,-2.6079,-2.6074,-2.606,-2.6136,-2.6136,-2.6136,-2.6136,-2.6168,-2.6162,-2.6182,-2.619,-2.6196,-2.6183,-2.621,-2.6205,-2.6197,-2.6197,-2.6184,-2.6166,-2.6161,-2.6154,-2.6147,-2.6134,-2.6227,-2.6227,-2.6227,-2.6212,-2.6205,-2.623,-2.6221,-2.6221,-2.6222,-2.6247,-2.6257,-2.6244,-2.623,-2.6197,-2.6193,-2.6163,-2.6154,-2.6138,-2.6127,-2.6103,0,0]},{"header":{"parameterUnit":"m.s-1","parameterCategory":1,"la1":30.2992,"la2":30.254,"lo1":-89.0895,"lo2":-89.0443,"dy":0.0025,"dx":0.0025,"nx":19,"ny":19,"refTime":"2026-04-28T03:00:00:Z","depth":0,"parameterNumber":3,"parameterNumberName":"V-component_of_WINDS"},"data":[0,0,0,3.9564,3.9565,3.961,3.961,3.9679,3.968,0,0,0,0,0,0,0,0,0,0,0,3.9559,3.9559,3.9564,3.9565,3.961,3.961,3.9679,3.968,0,0,0,0,0,0,0,0,0,0,0,3.9558,3.9559,3.956,3.9565,3.961,3.961,3.9679,3.9641,0,0,0,0,0,0,0,0,0,0,3.9595,3.9598,3.9559,3.956,3.9566,3.961,3.961,3.9639,3.9643,3.9664,0,3.9686,0,3.9685,3.9686,3.9686,0,0,0,3.9559,3.9595,3.96,3.956,3.9566,3.961,3.9588,3.9641,3.9646,3.967,3.9687,3.9689,3.9686,3.9686,3.9686,3.9834,3.9835,0,0,3.9556,3.9571,3.9596,3.9603,3.9598,3.9587,3.959,3.9644,3.9663,3.9687,3.9691,3.9687,3.9687,3.9687,3.9833,3.9834,0,0,0,3.9554,3.9569,3.9573,3.9601,3.9608,3.9588,3.9591,3.966,3.966,3.9691,3.9688,3.9687,3.9688,3.9832,3.9834,3.9898,0,0,0,3.9552,3.9568,3.9572,3.9581,3.9607,3.9635,3.9607,3.9656,3.9662,3.9687,3.9687,3.9689,3.9831,3.9833,3.9894,3.9926,0,0,0,3.9553,3.9568,3.9577,3.9582,3.9602,3.9634,3.9637,3.9657,3.966,3.9686,3.9689,3.983,3.9832,3.989,3.992,3.997,0,0,0,3.9558,3.9632,3.9578,3.9659,3.9602,3.9673,3.9636,3.9688,3.9718,3.9688,3.9831,3.9833,3.9889,3.9916,3.9966,4.0016,4.0038,0,0,3.9659,3.9645,3.9691,3.9645,3.973,3.9665,3.976,3.9772,3.976,3.981,3.9813,3.9895,3.9919,3.9969,4.0154,4.0171,0,0,0,3.9728,3.9762,3.9782,3.9812,3.9824,3.9838,3.9835,3.9839,3.9881,3.9789,3.9926,3.994,3.9969,3.9992,4.0007,4.0031,3.9844,3.9844,3.9844,3.9892,3.9875,3.9952,3.9941,3.997,3.9967,3.9989,3.9995,3.9967,4.0,4.0015,4.0129,4.0156,4.0168,4.0193,4.0039,4.0039,4.0039,4.0039,4.004,4.0086,4.005,4.0111,4.0092,4.0143,4.0143,4.0122,4.0166,4.0116,4.014,4.0087,4.0187,4.0209,4.0044,4.0043,4.0042,4.0042,4.0042,4.0147,4.0166,4.0172,4.0214,4.0249,4.0234,4.0279,4.026,4.0241,4.0265,4.028,4.0279,4.0276,4.0273,4.0274,4.0274,4.0275,4.0275,4.0275,4.0255,4.026,4.0301,4.0322,4.034,4.036,4.0358,4.0375,4.0388,4.037,4.037,4.034,4.02,4.0166,4.0281,4.028,4.0279,4.0279,4.0278,4.0414,4.0375,4.0439,4.0457,4.048,4.0517,4.0491,4.0527,4.0537,4.056,4.0525,4.0425,4.0408,4.0396,4.0368,4.0528,4.0528,4.0528,4.0528,4.0504,4.0494,4.0556,4.0586,4.0613,4.0597,4.067,4.067,4.0663,4.0669,4.0642,4.0603,4.0592,4.0582,4.0565,4.0539,4.0739,4.0739,4.074,4.0601,4.0593,4.066,4.0654,4.0671,4.0687,4.0755,4.079,4.0774,4.0748,4.0673,4.0664,4.06,4.058,4.0552,4.0528,4.0479,0,0]}]]